CW2434 Weather Reports


time (UTC)temp
C
wind
direction
speed
KPH
gust
KPH
rain 1hr
cm
rain 24hr
cm
rain mn
cm
humidity
%
barometer
mb
20260504081553 5 196 1.6 4.8 0.00 0.00 0.00 65 1011.9
20260504050123 6 63 3.2 6.4 0.00 0.00 0.00 64 1011.2
20260504044550 6 63 0.0 4.8 0.00 0.00 0.00 64 1011.3
20260504043051 6 63 3.2 4.8 0.00 0.00 0.00 63 1011.2
20260504041549 6 63 1.6 4.8 0.00 0.00 0.00 60 1011.3
20260504040055 6 63 1.6 4.8 0.00 0.00 0.00 63 1011.2
20260504034559 6 63 1.6 4.8 0.00 0.00 0.00 63 1011.2
20260504033059 6 63 1.6 4.8 0.00 0.00 0.00 62 1011.1
20260504031606 6 63 1.6 6.4 0.00 0.00 0.00 63 1011.1
20260504030114 6 268 1.6 4.8 0.00 0.00 0.00 61 1011.0
20260504024550 6 268 1.6 4.8 0.00 0.00 0.00 60 1011.0
20260504023050 6 268 1.6 4.8 0.00 0.00 0.00 57 1011.1
20260504021553 6 268 3.2 4.8 0.00 0.00 0.00 59 1011.0
20260504020048 7 268 3.2 4.8 0.00 0.00 0.00 56 1010.9
20260504014551 7 0 1.6 3.2 0.00 0.00 0.00 53 1011.0
20260504013052 8 0 0.0 1.6 0.00 0.00 0.00 51 1011.0
20260504011551 9 0 0.0 0.0 0.00 0.00 0.00 47 1011.0
20260504010052 10 0 0.0 3.2 0.00 0.00 0.00 46 1010.7
20260504004552 10 265 1.6 8.0 0.00 0.00 0.00 41 1010.5
20260504003048 10 281 1.6 6.4 0.00 0.00 0.00 41 1010.3
20260504001552 11 292 1.6 9.7 0.00 0.00 0.00 39 1010.2
20260504000131 11 267 4.8 11.3 0.00 0.00 0.00 37 1009.9
20260503234556 11 294 3.2 11.3 0.00 0.00 0.00 35 1009.9
20260503233052 12 315 8.0 19.3 0.00 0.00 0.00 33 1009.8
20260503231552 12 300 6.4 14.5 0.00 0.00 0.00 30 1009.5
20260503230056 12 302 6.4 14.5 0.00 0.00 0.00 31 1009.4
20260503224554 12 284 6.4 12.9 0.00 0.00 0.00 29 1009.4
20260503223056 12 332 8.0 19.3 0.00 0.00 0.00 31 1009.3
20260503221552 13 315 12.9 22.5 0.00 0.00 0.00 29 1009.2
20260503220054 13 274 11.3 19.3 0.00 0.00 0.00 28 1009.3
20260503214551 13 298 9.7 20.9 0.00 0.00 0.00 29 1009.2
20260503213052 13 261 14.5 25.7 0.00 0.00 0.00 29 1009.0
20260503211552 13 274 6.4 24.1 0.00 0.00 0.00 31 1009.0
20260503210051 13 303 11.3 24.1 0.00 0.00 0.00 32 1009.0
20260503204554 12 328 9.7 25.7 0.00 0.00 0.00 32 1009.0
20260503203101 12 304 12.9 25.7 0.00 0.00 0.00 31 1009.1
20260503201556 12 332 9.7 25.7 0.00 0.00 0.00 35 1009.2
20260503200053 11 35 8.0 22.5 0.00 0.00 0.00 36 1009.3
20260503194554 11 310 11.3 25.7 0.00 0.00 0.00 37 1009.6
20260503193053 11 309 12.9 27.4 0.00 0.00 0.00 38 1009.7
20260503191555 10 302 8.0 20.9 0.00 0.00 0.00 38 1009.9
20260503190050 10 294 14.5 27.4 0.00 0.00 0.00 37 1009.9
20260503184611 10 338 14.5 43.5 0.00 0.00 0.00 38 1010.1
20260503183057 10 304 16.1 27.4 0.00 0.00 0.00 38 1010.3
20260503181554 10 299 17.7 32.2 0.00 0.00 0.00 42 1010.3
20260503180057 9 325 16.1 33.8 0.00 0.00 0.00 40 1010.2
20260503174551 10 290 11.3 40.2 0.00 0.00 0.00 39 1010.2
20260503173052 10 298 16.1 33.8 0.00 0.00 0.00 40 1010.3
20260503171610 10 318 19.3 43.5 0.00 0.00 0.00 42 1010.4
20260503170106 10 350 14.5 35.4 0.00 0.00 0.00 40 1010.2